DW6610 Weather Reports


time (UTC)temp
F
wind
direction
speed
knots
gust
knots
rain 1hr
in
rain 24hr
in
rain mn
in
humidity
%
barometer
mb
20260508034602 52 0 0.0 0.0 0.00 0.00 0.00 94 1017.5
20260508034051 52 0 0.0 0.0 0.00 0.00 0.00 93 1017.6
20260508033552 52 0 0.0 0.9 0.00 0.00 0.00 93 1017.5
20260508033051 52 0 0.0 0.9 0.00 0.00 0.00 93 1017.6
20260508032556 52 0 0.0 0.0 0.00 0.00 0.00 93 1017.5
20260508032055 53 0 0.0 0.0 0.00 0.00 0.00 92 1017.7
20260508031602 53 0 0.0 0.0 0.00 0.00 0.00 93 1017.8
20260508031053 53 0 0.0 0.0 0.00 0.00 0.00 92 1017.7
20260508030552 53 0 0.0 0.0 0.00 0.00 0.00 92 1017.7
20260508030112 53 0 0.0 0.0 0.00 0.00 0.00 91 1017.6
20260508025551 54 0 0.0 0.0 0.00 0.00 0.00 90 1017.6
20260508025051 54 0 0.0 0.0 0.00 0.00 0.00 90 1017.7
20260508024606 54 0 0.0 0.0 0.00 0.00 0.00 90 1017.6
20260508024051 55 0 0.0 0.0 0.00 0.00 0.00 89 1017.6
20260508023553 55 0 0.0 0.0 0.00 0.00 0.00 88 1017.6
20260508023103 55 0 0.0 0.0 0.00 0.00 0.00 88 1017.4
20260508022551 55 0 0.0 0.0 0.00 0.00 0.00 86 1017.3
20260508022051 55 0 0.0 0.0 0.00 0.00 0.00 86 1017.3
20260508021619 56 0 0.0 0.0 0.00 0.00 0.00 86 1017.2
20260508021055 56 0 0.0 0.0 0.00 0.00 0.00 86 1017.2
20260508020551 56 0 0.0 0.0 0.00 0.00 0.00 84 1017.2
20260508020057 57 0 0.0 0.0 0.00 0.00 0.00 83 1017.1
20260508015552 57 0 0.0 0.0 0.00 0.00 0.00 83 1017.0
20260508015052 57 0 0.0 0.9 0.00 0.00 0.00 82 1017.1
20260508014559 57 0 0.0 0.9 0.00 0.00 0.00 81 1016.8
20260508014052 58 0 0.0 0.0 0.00 0.00 0.00 79 1016.9
20260508013551 58 0 0.0 0.0 0.00 0.00 0.00 78 1016.8
20260508013056 58 0 0.0 0.0 0.00 0.00 0.00 78 1016.7
20260508012551 59 0 0.0 0.0 0.00 0.00 0.00 77 1016.7
20260508012053 59 0 0.0 0.0 0.00 0.00 0.00 76 1016.7
20260508011558 59 0 0.0 0.0 0.00 0.00 0.00 75 1016.7
20260508011054 60 0 0.0 0.0 0.00 0.00 0.00 70 1016.7
20260508010551 60 0 0.0 0.0 0.00 0.00 0.00 68 1016.8
20260508010057 61 0 0.0 0.0 0.00 0.00 0.00 65 1016.6
20260508005553 61 0 0.0 0.0 0.00 0.00 0.00 64 1016.5
20260508005055 62 0 0.0 0.9 0.00 0.00 0.00 61 1016.5
20260508004558 62 0 0.0 0.9 0.00 0.00 0.00 60 1016.5
20260508004052 63 0 0.0 0.9 0.00 0.00 0.00 59 1016.6
20260508003551 63 0 0.0 0.9 0.00 0.00 0.00 59 1016.6
20260508003105 64 0 0.0 0.9 0.00 0.00 0.00 59 1016.7
20260508002549 64 117 0.0 0.9 0.00 0.00 0.00 60 1016.7
20260508002050 65 117 0.0 0.9 0.00 0.00 0.00 57 1016.5
20260508001555 66 124 0.0 1.7 0.00 0.00 0.00 54 1016.4
20260508001052 67 121 0.0 1.7 0.00 0.00 0.00 54 1016.5
20260508000551 68 155 0.9 1.7 0.00 0.00 0.00 53 1016.5
20260508000051 69 97 0.0 1.7 0.00 0.00 0.00 52 1016.4
20260507235552 69 0 0.9 1.7 0.00 0.01 0.00 51 1016.3
20260507235052 69 118 0.0 1.7 0.00 0.01 0.00 53 1016.1
20260507234551 69 101 0.0 1.7 0.00 0.01 0.00 52 1016.1
20260507234056 69 120 0.0 3.5 0.00 0.01 0.00 50 1016.3
20260507233552 69 118 0.0 3.5 0.00 0.01 0.00 53 1016.4
20260507233054 69 100 0.0 2.6 0.00 0.01 0.00 51 1016.4
20260507232552 69 172 0.9 2.6 0.00 0.01 0.00 49 1016.4
20260507232051 69 0 0.9 2.6 0.00 0.01 0.00 50 1016.3
20260507231559 70 103 0.9 2.6 0.00 0.01 0.00 49 1016.2
20260507231051 70 157 0.9 2.6 0.00 0.01 0.00 47 1016.2
20260507230553 71 155 0.0 2.6 0.00 0.01 0.00 47 1016.3
20260507230056 71 89 0.9 3.5 0.00 0.01 0.00 49 1016.3
20260507225554 71 84 0.9 3.5 0.00 0.01 0.00 48 1016.3
20260507225053 71 110 0.9 3.5 0.00 0.01 0.00 47 1016.5
20260507224601 71 96 0.9 3.5 0.00 0.01 0.00 50 1016.4
20260507224052 71 126 0.9 3.5 0.00 0.01 0.00 51 1016.4
20260507223552 71 119 0.9 3.5 0.00 0.01 0.00 46 1016.3
20260507223059 71 127 0.9 3.5 0.00 0.01 0.00 48 1016.3
20260507222555 72 213 0.0 2.6 0.00 0.01 0.00 47 1016.3
20260507222052 72 91 0.9 3.5 0.00 0.01 0.00 50 1016.4
20260507221552 72 117 0.0 3.5 0.00 0.01 0.00 46 1016.4
20260507221052 72 103 0.9 2.6 0.00 0.01 0.00 49 1016.4
20260507220553 72 130 0.9 3.5 0.00 0.01 0.00 46 1016.4
20260507220054 71 127 0.0 5.2 0.00 0.01 0.00 48 1016.4
20260507215557 71 160 0.9 5.2 0.00 0.02 0.00 44 1016.4
20260507215053 71 126 0.9 4.3 0.00 0.02 0.00 48 1016.3
20260507214559 70 116 1.7 4.3 0.00 0.02 0.00 47 1016.3
20260507214053 70 179 0.9 5.2 0.00 0.02 0.00 45 1016.3
20260507213548 71 219 1.7 5.2 0.00 0.02 0.00 49 1016.4
20260507213054 71 108 1.7 5.2 0.00 0.02 0.00 49 1016.2
20260507212550 71 167 1.7 4.3 0.00 0.02 0.00 46 1016.2
20260507212048 71 104 1.7 4.3 0.00 0.02 0.00 51 1016.3
20260507211558 71 94 1.7 5.2 0.00 0.02 0.00 53 1016.3
20260507211048 71 162 1.7 5.2 0.00 0.02 0.00 47 1016.2
20260507210552 70 141 0.9 5.2 0.00 0.02 0.00 52 1016.2
20260507210119 71 167 1.7 5.2 0.00 0.02 0.00 52 1016.3
20260507205552 70 127 0.9 4.3 0.00 0.07 0.00 51 1016.2
20260507205053 70 148 1.7 4.3 0.00 0.07 0.00 48 1016.4
20260507204602 71 108 1.7 4.3 0.00 0.07 0.00 52 1016.4
20260507204055 71 91 0.9 5.2 0.00 0.07 0.00 53 1016.4
20260507203551 71 155 0.0 5.2 0.00 0.07 0.00 49 1016.5
20260507203058 71 78 2.6 5.2 0.00 0.07 0.00 52 1016.6
20260507202552 71 72 0.9 3.5 0.00 0.07 0.00 53 1016.7
20260507202053 71 132 1.7 3.5 0.00 0.07 0.00 50 1016.7
20260507201603 71 150 0.9 2.6 0.00 0.07 0.00 52 1016.7
20260507201051 71 99 0.0 3.5 0.00 0.07 0.00 55 1016.7
20260507200552 70 117 0.9 3.5 0.00 0.07 0.00 50 1016.8
20260507200105 69 93 1.7 5.2 0.00 0.07 0.00 51 1017.0
20260507195556 70 217 2.6 5.2 0.00 0.07 0.00 50 1017.0
20260507195052 70 205 0.9 5.2 0.00 0.07 0.00 49 1016.8
20260507194552 70 105 0.9 7.0 0.00 0.07 0.00 52 1016.7
20260507194055 70 120 1.7 7.0 0.00 0.07 0.00 49 1016.7
20260507193552 70 179 0.9 4.3 0.00 0.07 0.00 52 1016.8
20260507193110 70 115 0.9 3.5 0.00 0.07 0.00 49 1017.0
20260507192553 70 195 0.9 4.3 0.00 0.07 0.00 55 1017.0
20260507192055 71 113 1.7 4.3 0.00 0.07 0.00 51 1017.1
20260507191557 70 125 1.7 6.1 0.00 0.07 0.00 50 1017.1
20260507191051 71 177 2.6 6.1 0.00 0.07 0.00 53 1017.1
20260507190551 70 120 0.9 6.1 0.00 0.07 0.00 55 1017.3
20260507190053 70 94 1.7 4.3 0.00 0.07 0.00 53 1017.4
20260507185551 70 198 1.7 5.2 0.00 0.07 0.00 51 1017.3
20260507185052 70 274 0.9 5.2 0.00 0.07 0.00 54 1017.3
20260507184551 69 116 1.7 6.1 0.00 0.07 0.00 52 1017.4
20260507184055 69 100 1.7 6.1 0.00 0.07 0.00 57 1017.3
20260507183554 69 168 1.7 6.1 0.00 0.07 0.00 53 1017.4
20260507183100 69 82 1.7 6.1 0.00 0.07 0.00 55 1017.4
20260507182552 69 134 0.9 6.1 0.00 0.07 0.00 55 1017.5
20260507182053 69 165 1.7 7.0 0.00 0.07 0.00 50 1017.6
20260507181556 69 78 2.6 7.0 0.00 0.07 0.00 58 1017.5
20260507181052 69 101 1.7 5.2 0.00 0.07 0.00 59 1017.6
20260507180552 68 90 1.7 5.2 0.00 0.07 0.00 52 1017.6
20260507180059 69 188 0.9 3.5 0.00 0.07 0.00 62 1017.6
20260507175559 69 307 0.9 3.5 0.00 0.08 0.00 52 1017.8
20260507175052 68 72 0.9 3.5 0.00 0.08 0.00 60 1017.9
20260507174608 67 139 0.9 5.2 0.00 0.08 0.00 54 1017.9
20260507174054 68 157 1.7 5.2 0.00 0.08 0.00 52 1018.0
20260507173550 68 140 0.9 4.3 0.00 0.08 0.00 58 1018.0
20260507173134 68 191 1.7 4.3 0.00 0.08 0.00 54 1018.1
20260507172554 68 139 0.9 4.3 0.00 0.08 0.00 60 1018.1
20260507172051 68 74 1.7 4.3 0.00 0.08 0.00 59 1018.2
20260507171553 68 120 1.7 6.1 0.00 0.08 0.00 57 1018.3
20260507171052 67 200 1.7 6.1 0.00 0.08 0.00 57 1018.3
20260507170553 68 195 1.7 6.1 0.00 0.08 0.00 56 1018.4
20260507170055 68 136 0.9 5.2 0.00 0.08 0.00 56 1018.4
20260507165549 67 124 0.9 7.8 0.00 0.14 0.00 61 1018.4
20260507165050 66 148 2.6 7.8 0.00 0.14 0.00 56 1018.6
20260507164600 66 162 2.6 6.1 0.00 0.14 0.00 56 1018.6
20260507164050 66 219 2.6 6.1 0.00 0.14 0.00 54 1018.7
20260507163550 67 138 0.9 10.4 0.00 0.14 0.00 63 1018.5
20260507163053 66 213 1.7 10.4 0.00 0.14 0.00 59 1018.7
20260507162557 66 96 2.6 10.4 0.00 0.14 0.00 55 1018.6
20260507162049 67 64 1.7 3.5 0.00 0.14 0.00 58 1018.6
20260507161608 67 144 0.0 3.5 0.00 0.14 0.00 64 1018.6
20260507161049 66 106 0.9 4.3 0.00 0.14 0.00 61 1018.6
20260507160552 65 172 1.7 4.3 0.00 0.14 0.00 57 1018.7
20260507160104 65 186 0.9 4.3 0.00 0.14 0.00 61 1018.7
20260507155548 65 134 0.9 6.1 0.00 0.19 0.00 61 1018.6
20260507155050 65 126 1.7 6.1 0.00 0.19 0.00 61 1018.5
20260507154552 64 188 2.6 6.1 0.00 0.19 0.00 57 1018.4
20260507154050 65 191 1.7 5.2 0.00 0.19 0.00 59 1018.5
20260507153549 66 127 1.7 5.2 0.00 0.19 0.00 61 1018.6
20260507153053 65 65 0.0 4.3 0.00 0.19 0.00 65 1018.4
20260507152549 65 192 0.9 5.2 0.00 0.19 0.00 62 1018.5
20260507152050 64 110 1.7 6.1 0.00 0.19 0.00 64 1018.6
20260507151556 64 169 1.7 6.1 0.00 0.19 0.00 65 1018.7
20260507151052 64 96 0.9 4.3 0.00 0.19 0.00 68 1018.7
20260507150550 65 118 0.9 3.5 0.00 0.19 0.00 66 1018.7
20260507150059 64 0 0.9 3.5 0.00 0.19 0.00 78 1018.7
20260507145552 63 132 0.9 3.5 0.00 0.34 0.00 72 1018.9
20260507145050 63 177 1.7 3.5 0.00 0.34 0.00 72 1019.0
20260507144601 63 238 0.9 2.6 0.00 0.34 0.00 72 1019.0
20260507144053 62 203 0.9 4.3 0.00 0.34 0.00 77 1018.9
20260507143549 62 134 0.9 4.3 0.00 0.34 0.00 76 1018.8
20260507143059 62 124 0.9 3.5 0.00 0.34 0.00 80 1018.6
20260507142551 61 95 0.9 3.5 0.00 0.34 0.00 78 1018.6
20260507142052 61 196 0.9 5.2 0.00 0.34 0.00 77 1018.6
20260507141619 61 93 0.9 5.2 0.00 0.34 0.00 80 1018.9
20260507141049 61 156 0.9 3.5 0.00 0.34 0.00 80 1018.8
20260507140552 60 166 1.7 3.5 0.00 0.34 0.00 79 1018.8
20260507140109 60 188 0.9 5.2 0.00 0.34 0.00 80 1018.7
20260507135555 59 127 0.0 5.2 0.00 0.36 0.00 84 1018.6
20260507135052 59 211 1.7 5.2 0.00 0.36 0.00 80 1018.7
20260507134608 59 153 0.9 4.3 0.00 0.36 0.00 83 1018.6
20260507134051 58 121 0.9 4.3 0.00 0.36 0.00 85 1018.6
20260507133549 58 186 0.9 4.3 0.00 0.36 0.00 84 1018.5
20260507133056 58 153 0.9 3.5 0.00 0.36 0.00 85 1018.5
20260507132549 57 167 0.0 3.5 0.00 0.36 0.00 84 1018.4
20260507132049 57 274 0.9 3.5 0.00 0.36 0.00 85 1018.4
20260507131552 56 154 0.9 3.5 0.00 0.36 0.00 88 1018.5
20260507131050 56 120 0.9 3.5 0.00 0.36 0.00 88 1018.5
20260507130552 56 173 0.9 2.6 0.00 0.36 0.00 88 1018.5
20260507130056 56 134 0.0 2.6 0.00 0.36 0.00 90 1018.3
20260507125549 55 160 0.0 2.6 0.00 0.36 0.00 89 1018.3
20260507125055 55 159 0.0 2.6 0.00 0.36 0.00 90 1018.2
20260507124553 54 0 0.0 2.6 0.00 0.36 0.00 92 1018.2
20260507124050 54 191 0.0 2.6 0.00 0.36 0.00 93 1018.1
20260507123550 53 138 0.0 1.7 0.00 0.36 0.00 94 1018.0
20260507123052 52 0 0.0 1.7 0.00 0.36 0.00 96 1018.0
20260507122549 51 174 0.0 0.9 0.00 0.36 0.00 97 1017.9
20260507122048 50 0 0.0 0.9 0.00 0.36 0.00 97 1017.8
20260507121554 50 147 0.0 2.6 0.00 0.36 0.00 98 1017.7
20260507121050 50 0 0.0 2.6 0.00 0.36 0.00 98 1017.6
20260507120552 49 139 0.0 1.7 0.00 0.36 0.00 99 1017.4
20260507120054 49 134 0.0 0.9 0.00 0.36 0.00 99 1017.4
20260507115552 48 143 0.0 0.9 0.00 0.37 0.00 99 1017.3
20260507115049 48 0 0.0 0.9 0.00 0.37 0.00 99 1017.3
20260507114559 48 0 0.0 0.9 0.00 0.37 0.00 99 1017.3
20260507114049 48 0 0.0 0.9 0.00 0.37 0.00 99 1017.2
20260507113554 48 143 0.0 0.9 0.00 0.37 0.00 99 1017.1
20260507113052 48 0 0.0 0.9 0.00 0.37 0.00 99 1017.1
20260507112553 48 0 0.0 0.9 0.00 0.37 0.00 99 1017.1
20260507112049 47 0 0.0 0.9 0.00 0.37 0.00 99 1017.1
20260507111600 48 0 0.0 0.9 0.00 0.37 0.00 98 1017.1
20260507111053 48 0 0.0 0.9 0.00 0.37 0.00 99 1017.2
20260507110549 48 0 0.0 0.9 0.00 0.37 0.00 98 1017.1
20260507110056 48 0 0.0 0.0 0.00 0.37 0.00 98 1016.9
20260507105551 48 0 0.0 0.0 0.00 0.58 0.00 98 1017.0
20260507105052 48 0 0.0 0.0 0.00 0.58 0.00 98 1016.8
20260507104555 48 0 0.0 0.0 0.00 0.58 0.00 98 1016.9
20260507104051 48 0 0.0 0.9 0.00 0.58 0.00 98 1017.0
20260507103552 48 0 0.0 0.9 0.00 0.58 0.00 98 1016.9
20260507103054 48 0 0.0 0.9 0.00 0.58 0.00 98 1017.0
20260507102549 48 0 0.0 0.9 0.00 0.58 0.00 98 1016.9
20260507102052 48 0 0.0 0.9 0.00 0.58 0.00 98 1016.9
20260507101607 49 0 0.0 0.9 0.00 0.58 0.00 98 1016.7
20260507101048 49 0 0.0 0.9 0.00 0.58 0.00 98 1016.7
20260507100549 49 0 0.0 0.0 0.00 0.58 0.00 98 1016.7
20260507100055 49 0 0.0 0.9 0.00 0.58 0.00 98 1016.8
20260507095549 49 0 0.0 0.9 0.00 0.70 0.00 98 1016.8
20260507095050 49 0 0.0 0.9 0.00 0.70 0.00 98 1017.0
20260507094555 49 0 0.0 0.9 0.00 0.70 0.00 98 1016.9
20260507094052 49 0 0.0 0.9 0.00 0.70 0.00 98 1016.7
20260507093549 49 0 0.0 0.0 0.00 0.70 0.00 98 1016.8
20260507093057 49 0 0.0 0.0 0.00 0.70 0.00 98 1016.7
20260507092604 49 0 0.0 0.0 0.00 0.70 0.00 98 1016.6
20260507092052 49 0 0.0 0.0 0.00 0.70 0.00 98 1016.6
20260507091557 49 0 0.0 0.9 0.00 0.70 0.00 97 1016.5
20260507091052 49 0 0.0 0.9 0.00 0.70 0.00 97 1016.4
20260507090551 50 0 0.0 0.0 0.00 0.70 0.00 97 1016.4
20260507090052 50 0 0.0 0.0 0.00 0.70 0.00 97 1016.4
20260507085549 50 0 0.0 0.0 0.00 1.23 0.00 97 1016.3
20260507085052 50 0 0.0 0.0 0.00 1.23 0.00 97 1016.4
20260507084555 50 0 0.0 0.0 0.00 1.23 0.00 97 1016.3
20260507084049 51 0 0.0 0.9 0.00 1.23 0.00 97 1016.2
20260507083549 51 0 0.0 0.9 0.00 1.23 0.00 97 1016.1
20260507083053 51 0 0.0 0.9 0.00 1.23 0.00 97 1016.0
20260507082551 51 0 0.0 0.9 0.00 1.23 0.00 98 1016.0
20260507082049 51 0 0.0 0.9 0.00 1.23 0.00 98 1016.0
20260507081552 51 0 0.0 0.0 0.00 1.23 0.00 98 1016.2
20260507081049 51 0 0.0 0.0 0.00 1.23 0.00 98 1016.3
20260507080549 51 0 0.0 0.0 0.00 1.23 0.00 98 1016.4
20260507080055 51 0 0.0 0.0 0.00 1.23 0.00 97 1016.4
20260507075556 51 0 0.0 0.0 0.00 1.40 0.00 97 1016.5
20260507075049 51 0 0.0 0.0 0.00 1.40 0.00 97 1016.5
20260507074557 51 0 0.0 0.0 0.00 1.40 0.00 97 1016.5
20260507074051 51 0 0.0 0.0 0.00 1.40 0.00 97 1016.4
20260507073549 51 0 0.0 0.0 0.00 1.40 0.00 96 1016.4
20260507073052 51 0 0.0 0.0 0.00 1.40 0.00 96 1016.3
20260507072550 52 0 0.0 0.0 0.00 1.40 0.00 96 1016.3
20260507072049 52 0 0.0 0.9 0.00 1.40 0.00 96 1016.5
20260507071551 52 0 0.0 0.9 0.00 1.40 0.00 96 1016.4
20260507071051 52 0 0.0 0.9 0.00 1.40 0.00 96 1016.1
20260507070549 52 0 0.0 0.9 0.00 1.40 0.00 96 1016.3
20260507070056 52 0 0.0 0.9 0.00 1.40 0.00 96 1016.4
20260507065551 52 0 0.0 0.9 0.00 1.74 0.00 96 1016.5
20260507065051 52 0 0.0 0.9 0.00 1.74 0.00 97 1016.5
20260507064607 52 0 0.0 0.9 0.00 1.74 0.00 97 1016.4
20260507064052 52 0 0.0 0.9 0.00 1.74 0.00 97 1016.3
20260507063554 52 0 0.0 0.9 0.00 1.74 0.00 97 1016.3
20260507063058 52 0 0.0 0.9 0.00 1.74 0.00 97 1016.3
20260507062551 52 0 0.0 0.9 0.00 1.74 0.00 97 1016.4
20260507062049 52 0 0.0 0.9 0.00 1.74 0.00 97 1016.6
20260507061556 52 0 0.0 0.0 0.00 1.74 0.00 97 1016.6
20260507061100 52 0 0.0 0.9 0.00 1.74 0.00 97 1016.6
20260507060551 52 0 0.0 0.9 0.00 1.74 0.00 97 1016.5
20260507060058 52 0 0.0 0.9 0.00 1.74 0.00 97 1016.5
20260507055550 53 0 0.0 0.9 0.00 1.74 0.00 97 1016.5
20260507055049 53 0 0.0 0.9 0.00 1.74 0.00 97 1016.5
20260507054606 53 131 0.0 0.9 0.00 1.74 0.00 97 1016.3
20260507054052 53 0 0.0 0.9 0.00 1.74 0.00 97 1016.5
20260507053552 53 195 0.0 1.7 0.00 1.74 0.00 97 1016.3
20260507053055 53 0 0.0 1.7 0.00 1.74 0.00 97 1016.3
20260507052552 53 146 0.0 1.7 0.00 1.74 0.00 97 1016.3
20260507052052 53 140 0.0 1.7 0.00 1.74 0.00 97 1016.4
20260507051555 53 0 0.0 1.7 0.00 1.74 0.00 97 1016.2
20260507051052 53 117 0.0 0.9 0.00 1.74 0.00 97 1016.0
20260507050549 52 132 0.0 0.9 0.00 1.74 0.00 97 1015.9
20260507050056 52 131 0.0 0.9 0.00 1.74 0.00 97 1016.0
20260507045552 52 131 0.0 1.7 0.00 1.74 1.74 97 1016.1
20260507045050 52 155 0.0 1.7 0.00 1.74 1.74 97 1016.0
20260507044554 52 0 0.0 1.7 0.00 1.74 1.74 97 1016.1
20260507044049 52 136 0.0 0.9 0.00 1.74 1.74 97 1016.0
20260507043549 52 0 0.0 0.9 0.00 1.74 1.74 97 1016.3
20260507043059 53 136 0.0 0.9 0.00 1.74 1.74 97 1016.3
20260507042553 52 136 0.0 0.9 0.00 1.74 1.74 97 1016.5
20260507042051 53 0 0.0 0.9 0.00 1.74 1.74 97 1016.3
20260507041600 53 0 0.0 0.9 0.00 1.74 1.74 97 1016.1
20260507041054 53 0 0.0 0.9 0.00 1.74 1.74 97 1016.3
20260507040555 53 0 0.0 0.9 0.00 1.74 1.74 97 1016.2
20260507040058 53 0 0.0 1.7 0.00 1.74 1.74 97 1016.4
20260507035552 53 171 0.0 1.7 0.00 1.74 1.74 96 1016.4
20260507035052 53 160 0.0 0.0 0.00 1.74 1.74 96 1016.6